TimeCST,TemperatureF,Dew PointF,Humidity,Sea Level PressureIn,VisibilityMPH,Wind Direction,Wind SpeedMPH,Gust SpeedMPH,PrecipitationIn,Events,Conditions,WindDirDegrees,DateUTC
12:23 AM,68.0,35.6,30,29.88,8.0,NNW,21.9,34.5,N/A,,Clear,340,2012-12-20 06:23:00
12:55 AM,67.3,26.6,22,29.91,8.0,NNW,27.6,34.5,N/A,,Clear,330,2012-12-20 06:55:00
1:18 AM,66.2,21.2,18,29.93,6.0,NNW,23.0,40.3,N/A,,Haze,330,2012-12-20 07:18:00
1:23 AM,64.4,19.4,18,29.93,6.0,NNW,24.2,32.2,N/A,,Haze,340,2012-12-20 07:23:00
1:55 AM,63.0,13.3,14,29.96,9.0,NNW,21.9,31.1,N/A,,Clear,330,2012-12-20 07:55:00
2:55 AM,60.4,13.1,16,30.02,8.0,North,16.1,28.8,N/A,,Clear,350,2012-12-20 08:55:00
3:21 AM,59.0,17.6,20,30.05,9.0,NNW,27.6,38.0,N/A,,Clear,340,2012-12-20 09:21:00
3:55 AM,54.3,18.5,25,30.06,10.0,NNW,25.3,35.7,N/A,,Partly Cloudy,340,2012-12-20 09:55:00
4:55 AM,48.0,17.1,29,30.12,10.0,NNW,24.2,33.4,N/A,,Clear,340,2012-12-20 10:55:00
5:55 AM,45.5,15.6,30,30.18,10.0,North,18.4,29.9,N/A,,Clear,350,2012-12-20 11:55:00
6:55 AM,43.7,16.5,34,30.22,10.0,NNW,19.6,31.1,N/A,,Clear,340,2012-12-20 12:55:00
7:55 AM,42.8,17.6,36,30.31,10.0,NNW,21.9,28.8,N/A,,Clear,330,2012-12-20 13:55:00
8:55 AM,43.9,16.9,34,30.36,10.0,NNW,18.4,27.6,N/A,,Clear,340,2012-12-20 14:55:00
9:55 AM,47.7,14.0,26,30.39,10.0,NNW,27.6,36.8,N/A,,Clear,330,2012-12-20 15:55:00
10:55 AM,50.9,10.0,19,30.41,10.0,North,26.5,39.1,N/A,,Clear,350,2012-12-20 16:55:00
11:55 AM,53.1,5.5,15,30.40,10.0,NNW,24.2,38.0,N/A,,Clear,340,2012-12-20 17:55:00
12:55 PM,55.8,4.5,13,30.38,10.0,North,21.9,29.9,N/A,,Clear,360,2012-12-20 18:55:00
1:55 PM,56.7,2.7,11,30.37,10.0,NNW,24.2,32.2,N/A,,Clear,330,2012-12-20 19:55:00
2:55 PM,57.0,3.2,11,30.37,10.0,NW,19.6,23.0,N/A,,Clear,320,2012-12-20 20:55:00
3:55 PM,57.0,1.0,10,30.37,10.0,NNW,19.6,-,N/A,,Clear,330,2012-12-20 21:55:00
4:55 PM,54.7,0.1,11,30.39,10.0,NNW,16.1,-,N/A,,Clear,340,2012-12-20 22:55:00
5:55 PM,50.9,3.2,14,30.40,10.0,NNW,11.5,-,N/A,,Clear,340,2012-12-20 23:55:00
6:55 PM,45.3,4.8,19,30.42,10.0,NW,8.1,-,N/A,,Clear,320,2012-12-21 00:55:00
7:55 PM,43.0,7.7,24,30.43,10.0,NW,5.8,-,N/A,,Clear,320,2012-12-21 01:55:00
8:55 PM,40.6,10.0,29,30.46,10.0,Calm,Calm,-,N/A,,Clear,0,2012-12-21 02:55:00
9:55 PM,34.7,13.8,42,30.48,10.0,NW,4.6,-,N/A,,Clear,320,2012-12-21 03:55:00
10:55 PM,31.1,14.7,51,30.49,10.0,WNW,4.6,-,N/A,,Clear,300,2012-12-21 04:55:00
11:55 PM,31.3,13.8,49,30.49,10.0,NNW,8.1,-,N/A,,Clear,330,2012-12-21 05:55:00